Location: Seven Kings
(51.5667°N, 0.1000°E)
Time: 03:24:22
(UTC+00:00)

Cosmos 2058 Rocket - Pass Details

Date: 29 October 2020
Orbit: 610 x 639 km, 82.5° (Epoch: 24 November)

Event Time Altitude Azimuth Distance (km) Brightness Sun altitude
Rises 18:18:30 0° 198° (SSW) 2,923 6.8 -16.2°
Reaches altitude 10° 18:20:45 10° 201° (SSW) 2,022 6.0 -16.6°
Maximum altitude 18:25:12 63° 283° (WNW) 718 3.6 -17.2°
Drops below altitude 10° 18:29:43 10° 5° (N) 2,045 5.7 -17.9°
Sets 18:32:00 0° 9° (N) 2,959 6.5 -18.3°
